CW3442 Weather Reports


time (UTC)temp
C
wind
direction
speed
KPH
gust
KPH
rain 1hr
cm
rain 24hr
cm
rain mn
cm
humidity
%
barometer
mb
20260508013339 7 275 0.0 0.0 0.00 0.00 0.00 57 786.9
20260508010329 8 275 0.0 0.0 0.00 0.00 0.00 55 786.9
20260508003325 8 275 0.0 0.0 0.00 0.00 0.00 53 786.8
20260508000342 9 275 0.0 0.0 0.00 0.00 0.00 50 786.8
20260507233352 10 275 0.0 0.0 0.00 0.00 0.00 46 786.8
20260507230338 11 261 0.0 0.0 0.00 0.00 0.00 44 786.7
20260507223321 10 257 0.0 0.0 0.00 0.00 0.00 44 786.7
20260507220348 10 275 0.0 0.0 0.00 0.00 0.00 48 786.8
20260507213338 11 298 0.0 0.0 0.00 0.00 0.00 46 786.7
20260507210325 11 285 0.0 0.0 0.00 0.00 0.00 47 786.7
20260507203338 11 255 0.0 0.0 0.00 0.00 0.00 48 786.6
20260507200350 11 272 0.0 0.0 0.00 0.00 0.00 42 786.6
20260507193350 11 273 0.0 0.0 0.00 0.00 0.00 45 786.7
20260507190354 11 256 0.0 0.0 0.00 0.00 0.00 46 786.7
20260507183331 10 271 0.0 0.0 0.00 0.00 0.00 49 786.6
20260507180320 10 290 0.0 0.0 0.00 0.00 0.00 47 786.6
20260507173328 10 278 0.0 0.0 0.00 0.00 0.00 45 786.6
20260507170401 10 292 0.0 0.0 0.00 0.00 0.00 46 786.6
20260507163335 10 285 0.0 0.0 0.00 0.00 0.00 46 786.6
20260507160349 10 279 1.6 0.0 0.00 0.00 0.00 51 786.6
20260507153331 10 245 1.6 0.0 0.00 0.00 0.00 53 786.6
20260507150348 10 258 3.2 0.0 0.00 0.00 0.00 55 786.6
20260507143323 10 296 1.6 0.0 0.00 0.00 0.00 57 786.6
20260507140329 9 191 0.0 0.0 0.00 0.00 0.00 55 786.6
20260507133331 8 267 1.6 0.0 0.00 0.00 0.00 59 786.7
20260507130339 8 223 1.6 0.0 0.00 0.00 0.00 60 786.7
20260507123336 7 256 1.6 0.0 0.00 0.00 0.00 62 786.7
20260507120345 6 330 3.2 0.0 0.00 0.00 0.00 65 786.7
20260507113324 6 271 3.2 0.0 0.00 0.00 0.00 66 786.7
20260507110401 6 236 1.6 0.0 0.00 0.00 0.00 70 786.6
20260507103335 6 231 1.6 0.0 0.00 0.00 0.00 76 786.5
20260507100323 6 109 0.0 0.0 0.00 0.00 0.00 82 786.5
20260507093336 6 205 0.0 0.0 0.00 0.00 0.00 87 786.6
20260507090342 6 221 0.0 0.0 0.00 0.00 0.00 88 786.5
20260507083406 6 189 0.0 0.0 0.00 0.00 0.00 88 786.5
20260507080330 6 200 0.0 0.0 0.00 0.00 0.00 88 786.6
20260507073324 6 213 0.0 0.0 0.00 0.00 0.00 87 786.6
20260507070320 6 228 0.0 0.0 0.00 0.00 0.00 87 786.6
20260507063338 6 203 0.0 0.0 0.00 0.00 0.00 87 786.6
20260507060349 6 179 0.0 0.0 0.00 0.00 0.00 88 786.7
20260507053351 6 171 0.0 0.0 0.00 0.00 0.00 88 786.8
20260507050336 6 191 0.0 0.0 0.00 0.00 0.00 88 786.9
20260507043325 6 191 0.0 0.0 0.00 0.00 0.00 87 786.9
20260507040350 6 191 0.0 0.0 0.00 0.00 0.00 86 787.0
20260507033351 6 191 0.0 0.0 0.00 0.00 0.00 86 787.0
20260507030321 6 191 0.0 0.0 0.00 0.00 0.00 85 787.0
20260507023324 7 191 0.0 0.0 0.00 0.00 0.00 83 787.1
20260507020337 7 211 0.0 0.0 0.00 0.00 0.00 82 787.1